Voltar ao catálogo

STARLINK-37650

AtivoComunicaçõesVLEO
NORAD 100056·PAYLOAD·🇺🇸 United States

Lançado Jul 14, 2026 de Cape Canaveral Space Force Station

Loading…

Próximas Passagens (próximas 24 horas)

TLE

AtualizadoSource: Space-Track

Época: Sep 14, 2026, 08:56 UTC

1 A0056U 26161AE  26257.37228578  .00022143  00000-0  66456-3 0  9993
2 A0056  53.1612  26.0601 0000919  88.0500 272.0608 15.34399236  9678

Acompanhe STARLINK-37650 em tempo real com AllMySat

Download on the App Store